AKDT,Max TemperatureF,Mean TemperatureF,Min TemperatureF,Max Dew PointF,MeanDew PointF,Min DewpointF,Max Humidity, Mean Humidity, Min Humidity, Max Sea Level PressureIn, Mean Sea Level PressureIn, Min Sea Level PressureIn, Max VisibilityMiles, Mean VisibilityMiles, Min VisibilityMiles, Max Wind SpeedMPH, Mean Wind SpeedMPH, Max Gust SpeedMPH,PrecipitationIn, CloudCover, Events, WindDirDegrees
2014-3-1,42,30,19,30,23,16,100,81,49,30.01,29.98,29.94,10,9,0,7,1,,0.00,2,,84
2014-3-2,41,26,12,25,17,9,93,74,45,29.95,29.86,29.81,10,10,10,7,2,,0.00,0,,62
2014-3-3,33,24,15,28,21,10,93,82,75,29.82,29.81,29.79,10,10,9,8,3,,0.00,6,,100
2014-3-4,37,35,33,28,25,21,81,67,52,29.83,29.80,29.75,10,10,10,10,6,,0.00,8,,191
2014-3-5,33,30,26,28,22,16,93,73,55,29.74,29.69,29.65,10,9,2,12,4,17,0.00,8,,233
2014-3-6,30,22,14,21,16,9,86,72,55,29.72,29.70,29.67,10,10,3,9,5,,0.00,5,,35
2014-3-7,28,18,8,16,8,1,93,68,40,29.71,29.54,29.28,10,10,8,12,3,18,0.00,1,,46
2014-3-8,30,15,0,7,2,-6,92,60,29,29.27,29.14,29.05,10,10,10,13,4,20,0.00,0,,61
2014-3-9,26,13,0,7,1,-6,85,61,37,29.46,29.27,29.11,10,10,10,8,4,,0.00,0,,50
2014-3-10,35,20,6,30,17,-2,100,78,57,29.46,29.20,28.89,10,7,1,13,6,21,0.00,7,,51
2014-3-11,41,34,28,37,32,25,100,89,75,29.15,28.99,28.92,10,10,1,10,4,,0.05,6,,123
2014-3-12,35,30,26,30,23,18,93,73,56,29.54,29.38,29.15,10,10,2,21,6,29,0.01,5,,179
2014-3-13,44,40,35,30,28,27,81,66,53,29.32,29.12,28.97,10,10,6,25,11,34,0.00,6,,57
2014-3-14,41,29,17,34,23,7,81,67,45,29.50,29.06,28.84,10,10,10,21,10,29,0.00,5,,96
2014-3-15,24,18,12,12,7,3,79,64,54,29.78,29.71,29.52,10,10,5,14,7,26,0.00,4,,234
2014-3-16,32,19,6,19,11,1,85,68,55,29.71,29.63,29.54,10,10,10,16,7,23,0.00,6,,67
2014-3-17,32,28,24,30,24,16,100,82,64,29.68,29.61,29.55,10,6,1,14,8,21,0.06,7,,55
2014-3-18,35,27,19,28,24,16,93,81,55,30.00,29.85,29.69,10,10,2,9,2,,0.01,6,,8
2014-3-19,35,20,5,19,11,0,100,67,38,30.21,30.12,30.01,10,10,10,10,2,17,0.00,0,,41
2014-3-20,35,19,3,16,8,-2,92,63,38,30.27,30.25,30.22,10,10,10,10,2,,0.00,0,,21
2014-3-21,35,28,21,16,11,9,63,50,38,30.33,30.30,30.27,10,10,10,15,5,21,0.00,0,,56
2014-3-22,37,24,10,12,10,3,85,54,33,30.46,30.40,30.34,10,10,10,10,4,,0.00,0,,55
2014-3-23,39,21,3,14,6,-2,85,55,26,30.48,30.42,30.33,10,10,10,14,2,17,0.00,0,,34
2014-3-24,39,24,8,14,7,0,79,53,26,30.34,30.16,29.93,10,10,10,8,2,,0.00,0,,53
2014-3-25,41,24,6,14,7,0,79,53,24,29.93,29.82,29.72,10,10,10,9,3,,0.00,2,,26
2014-3-26,39,26,12,18,11,7,79,53,28,29.77,29.73,29.71,10,10,10,8,1,,0.00,3,,17
2014-3-27,39,26,12,16,10,5,86,53,28,29.83,29.80,29.78,10,10,10,8,2,,0.00,0,,49
2014-3-28,39,24,10,16,10,3,85,56,33,29.84,29.79,29.73,10,10,10,10,2,,0.00,0,,23
2014-3-29,39,24,8,16,9,1,85,55,30,29.87,29.77,29.74,10,10,10,10,1,,0.00,0,,18
2014-3-30,39,24,10,18,10,3,85,55,31,30.07,29.99,29.87,10,10,10,8,2,,0.00,0,,21
2014-3-31,41,26,12,18,12,7,86,57,36,30.11,30.06,29.99,10,10,10,9,2,,0.00,0,,16